Location: Demmerik
(52.2037°N, 4.9326°E)
Time: 19:26:10
(UTC+00:00)

Daily predictions for brighter satellites

Satellite Brightness Start Highest point End
(mag) Time Altitude Azimuth Time Altitude Azimuth Time Altitude Azimuth
CZ-4B R/B 3.3 16:09:37 10° SSE 16:14:55 82° WSW 16:20:15 10° NNW
Sich 1 3.3 16:11:52 10° N 16:16:06 46° ENE 16:20:20 10° SSE
ATLAS 3B R/B 3.6 16:13:28 10° WNW 16:19:17 30° N 16:25:08 10° ENE
Cosmos 2233 Rocket 4.2 16:13:01 10° NNW 16:19:23 84° W 16:25:39 10° S
Okean-O 3.5 16:15:40 10° ESE 16:19:27 28° ENE 16:23:14 10° N
Meteor 2-10 Rocket 4.1 16:17:15 10° SSW 16:22:13 60° WNW 16:27:22 10° N
Cosmos 1844 Rocket 4.4 16:19:56 10° NNW 16:23:00 15° NNE 16:26:03 10° NE
USA 238 DEB 4.4 16:16:51 10° NW 16:23:23 39° NNE 16:30:09 10° E
USA 238 4.4 16:16:57 10° NW 16:23:29 39° NNE 16:30:14 10° E
NOSS 3-2 (A) 4.5 16:19:43 10° NW 16:26:07 39° NNE 16:33:22 10° E
Cosmos 1238 Rocket 3.2 16:22:06 10° NNW 16:26:07 62° W 16:29:28 10° S
Cosmos 1666 Rocket 3.7 16:26:20 10° N 16:30:36 48° ENE 16:34:48 10° SSE
Cosmos 2221 2.8 16:27:11 10° SSW 16:31:31 73° WNW 16:35:55 10° N
Cosmos 2278 Rocket 4.2 16:30:14 10° NNW 16:32:04 11° N 16:33:53 10° NNE
Cosmos 1371 Rocket 4.2 16:27:47 10° NNW 16:32:51 50° ENE 16:37:53 10° SE
Cosmos 44 4.4 16:30:01 10° NNW 16:33:27 21° NNE 16:36:38 11° ENE
Helios 1A Rocket 3.9 16:29:35 10° S 16:33:39 53° WSW 16:37:44 10° NNW
COSMO-SKYMED 1 4.3 16:33:58 10° NE 16:36:20 14° E 16:38:41 10° ESE
Okean O Rocket 2.5 16:32:03 10° S 16:36:21 53° W 16:40:39 10° NNW
APEX 4.4 16:39:33 10° SSE 16:41:32 16° ESE 16:42:41 13° E
Cosmos 1633 2.5 16:43:04 10° N 16:46:45 75° ENE 16:50:22 10° SSE
CZ-4B R/B 3.3 16:44:48 10° N 16:47:51 31° WNW 16:50:56 10° SW
Cosmos 1891 Rocket 4.5 16:43:54 10° N 16:50:17 73° ENE 16:56:28 10° SSE
Cosmos 1464 Rocket 3.9 16:45:20 10° N 16:51:30 74° ENE 16:57:37 10° SSE
CORIOLIS 4.1 16:47:02 10° SSE 16:52:26 73° ENE 16:57:53 10° NNW
Cosmos 1356 Rocket 3.4 16:49:19 10° S 16:53:32 84° E 16:57:51 10° NNE
CSL-04 Rocket 4.4 16:49:05 10° ESE 16:53:39 30° ENE 16:58:11 10° N
Ariane Rocket 4.4 16:52:40 14° E 16:54:42 17° NE 16:57:55 10° NNE
Cosmos 1680 Rocket 3.8 16:50:26 10° S 16:55:25 48° ESE 17:00:29 10° NE
Meteor 2-11 Rocket 4.5 16:49:46 10° N 16:55:50 60° ENE 17:01:54 10° SSE
Cosmos 1606 4.4 16:55:15 10° ESE 16:56:57 15° E 16:56:57 15° E
Cosmos 2369 Rocket 4.3 16:55:05 10° WNW 16:58:16 15° NNW 17:01:27 10° NNE
NOAA 12 4.1 16:53:58 10° SSE 16:59:13 63° ENE 17:04:30 10° N
Cosmos 1470 Rocket 3.8 16:57:44 10° N 17:02:06 48° ENE 17:06:26 10° SSE
YAOGAN 1 3.4 16:59:23 10° ESE 17:03:05 28° ENE 17:06:47 10° N
PSLV R/B 4.0 16:59:11 10° NNE 17:03:27 87° WNW 17:07:39 10° SSW
ALOS 4.5 17:00:27 10° SSW 17:04:30 29° W 17:08:34 10° NNW
CZ-4 R/B 2.0 17:01:05 10° SE 17:04:44 32° ENE 17:08:20 10° N
Cosmos 1943 Rocket 4.4 17:03:22 10° NW 17:06:15 14° NNW 17:09:08 10° NNE
Cosmos 1939 Rocket 4.3 17:06:33 19° ENE 17:06:33 19° ENE 17:09:24 10° NNE
SMAP 3.3 17:03:01 10° S 17:07:40 75° WSW 17:12:22 10° NNW
AQUARIUS 4.3 17:03:21 10° SSE 17:07:52 80° WSW 17:12:24 10° NNW
Cosmos 1980 Rocket 2.6 17:04:23 10° S 17:09:43 44° ESE 17:14:10 15° NE
USA 215 3.5 17:04:32 16° ENE 17:09:46 59° N 17:16:11 10° WNW
Cosmos 1862 3.4 17:06:11 10° NNW 17:10:11 78° W 17:14:10 10° S
ERBS 2.4 17:08:23 10° WSW 17:11:42 69° NNW 17:13:28 25° NE
SL-16 R/B 3.7 17:08:43 10° SE 17:12:08 16° E 17:12:09 16° E
NOSS 3-2 (C) 4.4 17:06:54 10° NW 17:13:29 43° NNE 17:18:47 19° E
Cosmos 1933 4.2 17:12:26 10° SSE 17:15:57 29° E 17:17:21 23° NE
Lacrosse 4 Rocket 1.5 17:12:47 10° SW 17:16:50 72° NW 17:19:57 17° NNE
Cosmos 2322 Rocket 3.8 17:14:45 10° SE 17:17:03 15° ESE 17:17:03 15° ESE
NOSS 2-3 (E) 3.8 17:16:55 10° SW 17:21:22 70° SE 17:24:53 21° NE
Cosmos 923 Rocket 4.0 17:17:21 10° SSW 17:22:35 86° WNW 17:27:50 10° NNE
Cosmos 1624 Rocket 4.1 17:17:22 10° NNW 17:22:45 84° WSW 17:28:05 10° SSE
SeaSat 1 2.4 17:17:59 10° SE 17:22:53 71° NE 17:27:49 10° NNW
Cosmos 2056 Rocket 3.5 17:19:04 10° NNW 17:24:14 84° WSW 17:29:26 10° SSE
SKYMED 2 4.1 17:22:17 19° NE 17:24:57 37° E 17:28:59 10° SSE
USA 229 DEB 4.0 17:18:29 10° WSW 17:25:06 66° NW 17:30:48 16° NE
USA 229 3.9 17:18:35 10° WSW 17:25:13 66° NW 17:30:54 16° NE
BREEZE-M DEB (TANK) 3.0 17:18:13 10° W 17:26:17 64° S 17:27:57 27° ESE
NOSS 3-1 (C) 3.7 17:21:26 10° WSW 17:27:11 66° NW 17:32:29 17° NE
Cosmos 2263 Rocket 2.1 17:21:39 10° NNW 17:27:13 66° NE 17:32:45 10° SE
NOSS 3-1 (A) 3.5 17:24:26 10° SW 17:30:10 83° NW 17:35:10 19° NE
NOSS 2-3 (D) 3.7 17:26:41 10° SW 17:31:08 77° SE 17:34:17 24° NE
CZ-4 R/B 4.4 17:27:12 10° SSE 17:31:18 62° ENE 17:35:26 10° N
YAOGAN 6 2.3 17:31:44 10° SSE 17:35:12 68° ENE 17:38:42 10° N
H-2A R/B 4.1 17:31:48 10° S 17:35:25 41° W 17:39:02 10° NNW
Timation 1 Rocket 4.2 17:33:54 10° NNW 17:39:55 77° NE 17:45:55 10° SE
H-2A R/B 3.8 17:43:09 16° NNE 17:43:09 16° NNE 17:44:52 10° NNE
Cosmos 2369 4.0 17:40:09 10° SW 17:45:47 66° NW 17:50:38 15° NNE
Cosmos 1697 Rocket 3.0 17:40:55 10° SW 17:46:33 68° NW 17:51:13 15° NNE
COBE Rocket 4.0 17:42:41 10° N 17:47:27 73° WNW 17:52:06 10° SSW
CENTAUR R/B 3.4 17:40:19 10° NW 17:47:32 48° NNE 17:51:27 29° E
Envisat 3.4 17:45:01 10° S 17:50:04 65° WSW 17:55:09 10° NNW
Cosmos 1151 Rocket 3.2 17:47:55 10° SSW 17:52:18 76° W 17:56:43 10° N
Meteor 1-14 Rocket 4.4 17:47:00 10° N 17:52:55 57° ENE 17:58:47 10° SSE
Okean-O 3.9 17:51:33 10° S 17:55:46 43° W 18:00:02 10° NNW
Cosmos 158 Rocket 3.9 17:53:53 10° SSW 17:59:09 86° ESE 18:02:06 26° NNE
Cosmos 2278 4.0 17:57:20 10° SW 18:02:59 65° NW 18:07:05 19° NNE
Cosmos 1420 Rocket 4.0 17:58:07 10° NNW 18:03:20 82° WSW 18:08:31 10° SSE
GENESIS II 4.5 17:59:31 10° SSW 18:03:14 54° SE 18:03:14 54° SE
Cosmos 2360 4.4 17:58:43 10° SW 18:04:25 74° WNW 18:08:10 23° NNE
Cosmos 1634 Rocket 3.9 18:01:40 10° N 18:07:55 86° E 18:14:05 10° S
Cosmos 1328 Rocket 4.4 18:04:09 10° SSW 18:08:25 50° WNW 18:12:43 10° N
Cosmos 1844 Rocket 3.2 18:03:20 10° NNW 18:08:24 38° NE 18:08:24 38° NE
NOSS 2-3 (C) 4.2 18:04:27 10° WSW 18:09:00 64° NW 18:11:05 36° NNE
Cosmos 1933 Rocket 4.3 18:05:15 10° NNW 18:09:30 54° W 18:13:44 10° S
ATLAS 3B R/B 3.0 18:05:11 10° NW 18:11:33 44° NNE 18:12:57 39° ENE
Geosat 3.9 18:10:04 45° NE 18:11:36 76° ESE 18:16:37 10° SSW
Cosmos 1452 Rocket 3.5 18:07:17 10° NNW 18:12:37 85° WSW 18:16:36 18° SSE
COSMO-SKYMED 1 2.6 18:10:49 28° N 18:13:04 80° WNW 18:17:25 10° SSW
Cosmos 2228 Rocket 3.0 18:10:24 10° S 18:14:54 85° E 18:16:06 49° NNE
Cosmos 1515 Rocket 3.9 18:10:53 10° SSW 18:15:14 65° WNW 18:18:15 19° N
USA 238 DEB 3.7 18:08:08 10° NW 18:15:17 81° NE 18:18:44 35° SE
USA 238 3.7 18:08:14 10° NW 18:15:23 81° NE 18:18:47 35° SE
Cosmos 44 3.0 18:11:02 10° NW 18:15:05 64° NNE 18:15:05 64° NNE
USA 116 4.2 18:14:06 41° NNE 18:15:49 75° ESE 18:21:02 10° S
NOSS 3-2 (A) 3.9 18:10:47 10° NW 18:18:03 78° NE 18:21:46 36° ESE
Cosmos 2278 Rocket 3.8 18:14:26 10° NNW 18:17:40 19° NNE 18:17:40 19° NNE
SWAS 4.3 18:14:24 10° NNW 18:18:40 85° N 18:18:40 85° N
Cosmos 2142 Rocket 4.4 18:12:36 10° N 18:19:03 82° ENE 18:25:25 10° SSE
COSMOS 2455 4.0 18:16:31 10° S 18:19:46 27° SSE 18:19:46 27° SSE
Cosmos 2279 Rocket 3.8 18:17:25 10° N 18:23:40 73° ENE 18:29:55 10° SSE
NOAA 11 4.1 18:20:59 10° SSE 18:26:25 84° WSW 18:31:55 10° NNW
Tsikada Rocket 4.4 18:20:08 10° SSW 18:26:31 66° WNW 18:32:56 10° N
MOS 1 4.4 18:29:42 55° NE 18:29:42 55° NE 18:34:42 10° N
Cosmos 1606 3.7 18:29:06 10° SSW 18:32:01 44° WSW 18:32:01 44° WSW
Ariane Rocket 2.8 18:32:52 82° E 18:32:57 82° ENE 18:38:04 10° NNW
CSL-04 Rocket 4.3 18:28:32 10° S 18:33:44 54° W 18:38:57 10° NNW
YAOGAN 1 3.8 18:34:57 10° S 18:39:02 41° W 18:43:10 10° NNW
CZ-4 R/B 3.2 18:36:08 10° SSW 18:39:46 30° W 18:43:22 10° NNW
Cosmos 1939 Rocket 4.1 18:42:28 37° NW 18:42:28 37° NW 18:45:08 10° NNW
Meteor 1-26 Rocket 4.3 18:35:37 10° SSW 18:41:36 82° WNW 18:45:50 20° N
Cosmos 371 Rocket 4.5 18:36:48 10° NNW 18:39:36 33° N 18:39:36 33° N
GEOS 3 Rocket 3.5 18:42:00 83° NNE 18:42:11 87° NW 18:47:28 10° SW
Cosmos 2369 Rocket 4.5 18:43:18 10° NNW 18:44:56 11° N 18:45:09 11° N
Cosmos 1844 4.3 18:40:17 10° NNW 18:44:39 45° N 18:44:39 45° N
USA 215 3.1 18:51:53 72° E 18:52:34 81° NNE 18:59:07 10° WNW
Cosmos 1943 Rocket 4.5 18:50:36 10° NNW 18:52:25 12° N 18:52:25 12° N
Cosmos 1980 Rocket 3.2 18:48:22 10° WSW 18:53:47 43° NW 18:55:57 31° N
SL-16 R/B 2.5 18:49:42 10° SSW 18:54:04 55° SSW 18:54:04 55° SSW
Lacrosse 4 Rocket 3.7 18:53:29 10° WNW 18:56:14 17° NNW 18:56:16 17° NNW
Cosmos 2180 Rocket 4.4 18:50:24 10° NNW 18:56:35 84° W 18:57:38 64° S
Cosmos 2322 Rocket 3.1 18:55:29 10° SSW 18:58:55 39° SSW 18:58:55 39° SSW
NOSS 3-2 (C) 3.9 18:57:55 10° NW 19:05:15 89° SW 19:06:15 72° SE
Cosmos 2263 Rocket 4.1 19:06:12 10° NW 19:10:43 26° WSW 19:15:13 10° SSW
H-2A R/B 4.0 19:23:48 20° NNW 19:23:48 20° NNW 19:25:23 10° NNW
CENTAUR R/B 3.1 19:31:08 10° NW 19:38:39 79° W 19:38:39 79° W
Cosmos 1844 Rocket 4.4 19:47:15 10° NW 19:50:05 29° NW 19:50:05 29° NW
ATLAS 3B R/B 3.6 19:56:01 10° NW 20:00:13 41° WNW 20:00:13 41° WNW
Cosmos 2278 Rocket 4.4 19:58:09 10° NNW 19:59:30 18° NNW 19:59:30 18° NNW
